DECAYED

STARLINK-30211, 57304 (Decayed)

Orbit data source: Space-Track

STARLINK-30211, 57304 was a payload satellite owned by SpaceX/Seattle (US) in LEO that was launched on Mon, 10 Jul 2023 UTC via an FALCON 9 launch vehicle from the Air Force Eastern Test Range (AFETR). Payload-class satellites include a variety of spacecraft equipped with specific instruments for various scientific and technological missions. These include communications satellites like Starlink; space stations such as the ISS; scientific satellites like the Hubble; Earth observation satellites from companies like Planet Labs, Umbra, and HawkEye 360; GPS; miniature CubeSats for education and research; and military/defense satellites.

Not visible in the next 10 days
Identifier
57304, 2023-096Q
Orbit
Decayed
Country
Flag of USUS
Related business
Manufacturer
SpaceX/Seattle
Mission
Decayed Commercial Communications
Bus & Motor
STARLINK V2M, Unknown motor
Mass
730 kg wet, ~700 kg dry
Launch date (UTC)
2023-07-10 (2 years ago)
Launch vehicle
FALCON 9
Launch site
Air Force Eastern Test Range (AFETR)
Object type
Payload
Rocket body
Debris
Shape & HBR
Box + 2 Pan, 14.5 m
Radar Cross Section
33.884 m², Large (>1 m²)

Expand to show TLE details & history
Last TLE update: 2 months ago

TLE from 2 months ago
0 STARLINK-30211
1 57304U 23096Q   25179.86500257  .07683993  92716-5  17360-2 0  9990
2 57304  42.9779 114.9021 0028374  48.5403  10.9158 16.27838191108891
Epoch: 2025-06-28T20:45Z
TLE epoch observation values (Epoch: 2025-06-28T20:45:36.222Z)
Latitude
36.1224°
Longitude
-62.5519°
Altitude
181.652 km
Speed
7.814 km/s
True Right ascension
11h 04m 11s
True Declination
35° 56' 40"
Sunlit
Object was in daylight at epoch
Visualization orbit readout
Latitude
Unknown
Longitude
Unknown
Altitude
Unknown
Speed
Unknown
Apparent Right ascension
Unknown
Apparent Declination
Unknown
Sunlit
N/A
Visualization observer readout
Local Sidereal Time
17:05:53
Azimuth
Unknown
Elevation
Unknown
Doppler factor
Unknown
Orbital elements
Apogee altitude
219.055 km
Perigee altitude
181.723 km
Semi-major axis
6,578.526 km
Eccentricity
0.00284
Inclination
42.9779°
RAAN
114.9021°
Arg. of periapsis
48.5403°
True anomaly
10.97759°
Mean anomaly
10.9158°
Eccentric anomaly
10.94667°
Mean motion
4.06771 °/min
Orbital period
88.5 mins
BSTAR
0.001736
Loading maneuver chart data...
Computing Atmospheric mass density...
Loading historical data...
Loading historical data...
Loading historical data...
Loading historical data...
Loading historical data...
Loading historical data...
Loading historical data...

Documentation

Showing up to 5 results
|